Terug naar catalogus

STARLINK-33896

ActiefCommunicatieVLEO
NORAD 63861·PAYLOAD·🇺🇸 United States

Gelanceerd May 7, 2025 vanaf Cape Canaveral Space Force Station

Loading…

Volgende Passages (komende 24 uur)

TLE

VersSource: CelesTrak SupGP

Epoch: Sep 15, 2026, 02:55 UTC

1 63861C 25093AB  26258.12201389 -.00002133  00000+0 -77241-4 0  2585
2 63861  43.0016  88.2109 0001739 275.2795  15.1689 15.27587704    12

Volg STARLINK-33896 in realtime met AllMySat

Download on the App Store